Tracking 30923 objects as of 1-Jul-2025
HD Live streaming from Space Station
objects crossing your sky now

STARLINK-30322

Track STARLINK-30322 now!
10-day predictions
STARLINK-30322 is classified as:


NORAD ID: 57670
Int'l Code: 2023-124H
Perigee: 481.6 km
Apogee: 483.2 km
Inclination: 53.2 °
Period: 94.1 minutes
Semi major axis: 6853 km
RCS: Unknown
Launch date: August 22, 2023
Source: United States (US)
Launch site: AIR FORCE WESTERN TEST RANGE (AFWTR)
Your satellite tracking list
ASTRA 1C
Track 1 satellite(s)




NASA's NSSDC Master Catalog

Two Line Element Set (TLE):
1 57670U 23124H   25181.65360599 -.00000289  00000-0  23540-5 0  9996
2 57670  53.1607 297.7542 0001194  86.2512 273.8625 15.30191195104603
Source of the keplerian elements: AFSPC